Showing default

FLOCK 4BE 31, 60488

Orbit data source: Space-Track

FLOCK 4BE 31, 60488 is a payload satellite owned by Planet (US) in SSO that was launched on Fri, 16 Aug 2024 UTC via an FALCON 9 launch vehicle from the Air Force Western Test Range (AFWTR). Payload-class satellites include a variety of spacecraft equipped with specific instruments for various scientific and technological missions. These include communications satellites like Starlink; space stations such as the ISS; scientific satellites like the Hubble; Earth observation satellites from companies like Planet Labs, Umbra, and HawkEye 360; GPS; miniature CubeSats for education and research; and military/defense satellites.

Loading next visibility...
Identifier
60488, 2024-149W
Orbit
SSO
Country
Flag of USUS
Related business
Manufacturer
Planet
Mission
Operational Commercial Imaging
Bus & Motor
CUBESAT 3U, Unknown motor
Mass
5.7 kg wet, 5.7 kg dry
Launch date (UTC)
2024-08-16 (1 year ago)
Launch vehicle
FALCON 9
Launch site
Air Force Western Test Range (AFWTR)
Object type
Payload
Rocket body
Debris
Shape & HBR
Box + 2 Pan, 1.0 m
Radar Cross Section
0.072 m², Medium (>0.1 m² and < 1m²)

Expand to show TLE details & history
Last TLE update: 11 hours ago

TLE from 11 hours ago
0 FLOCK 4BE 31
1 60488U 24149W   26036.16853386  .00028311  00000-0  74850-3 0  9995
2 60488  97.3894 120.0015 0003180  37.2160 322.9305 15.38374567 82045
Epoch: 2026-02-05T04:02Z
TLE epoch observation values (Epoch: 2026-02-05T04:02:41.325Z)
Latitude
-0.00003°
Longitude
-75.99532°
Altitude
452.298 km
Speed
7.642 km/s
True Right ascension
08h 00m 00s
True Declination
0° 00' 00"
Sunlit
Object was in full shadow at epoch
Visualization orbit readout
Latitude
Unknown
Longitude
Unknown
Altitude
Unknown
Speed
Unknown
Apparent Right ascension
Unknown
Apparent Declination
Unknown
Sunlit
N/A
Visualization observer readout
Local Sidereal Time
16:55:54
Azimuth
Unknown
Elevation
Unknown
Doppler factor
Unknown
Orbital elements
Apogee altitude
450.027 km
Perigee altitude
445.685 km
Semi-major axis
6,825.993 km
Eccentricity
0.00032
Inclination
97.3894°
RAAN
120.0015°
Arg. of periapsis
37.216°
True anomaly
322.90853°
Mean anomaly
322.9305°
Eccentric anomaly
322.91951°
Mean motion
3.84853 °/min
Orbital period
93.54 mins
BSTAR
0.0007485
Loading maneuver chart data...
Computing Atmospheric mass density...
Loading historical data...
Loading historical data...
Loading historical data...
Loading historical data...
Loading historical data...
Loading historical data...
Loading historical data...

Documentation

Showing up to 5 results
|